Weather Service Report


083 
FPUS83 KFGF 310031
OPUFGF
PRAIRIE TO PINES WEATHER ROUNDUP
NATIONAL WEATHER SERVICE EASTERN NORTH DAKOTA/GRAND FORKS ND
700 PM CDT MON MAR 30 2015

 **SATELLITE DATA USED TO AUGMENT SKY COVER AT AUTOMATED STATIONS**
 *****  WEATHER ACROSS EASTERN NORTH DAKOTA  *****
  
CITY           SKY/WX    TMP DP  RH WIND       PRES   REMARKS
GRAND FORKS    PTCLDY    52  38  58 S6        29.83F                  
6HR MIN TEMP:  43; 6HR MAX TEMP:  53;                                

GRAND FORKS AF PTCLDY    53  38  56 SE8       29.82F                  
GRAND CITY NWS   N/A     46 N/A N/A SE7         N/A                   
BUXTON           N/A     54  38  54 CALM        N/A                   
DEVILS LAKE    CLEAR     57  34  41 NW16      29.83R                  
6HR MIN TEMP:  50; 6HR MAX TEMP:  61;                                

FARGO          CLEAR     56  38  50 NE8       29.84R                  
6HR MIN TEMP:  56; 6HR MAX TEMP:  63;                                

WAHPETON ARPT  CLEAR     57  32  38 N8        29.85R                  
$$

 *****  WEATHER ACROSS CENTRAL AND WESTERN NORTH DAKOTA  *****
  
CITY           SKY/WX    TMP DP  RH WIND       PRES   REMARKS
JAMESTOWN      PTCLDY    62  31  31 NW17G26   29.85R                  
6HR MIN TEMP:  61; 6HR MAX TEMP:  65;                                

BISMARCK       SUNNY     65  30  27 NW18G24   29.91S                  
6HR MIN TEMP:  63; 6HR MAX TEMP:  68;                                

MINOT          SUNNY     60  27  28 NW21G28   29.89S                  
6HR MIN TEMP:  60; 6HR MAX TEMP:  65; 6HR PCP: TRACE;                

MINOT AFB      SUNNY     60  29  32 NW16      29.87S                  
6HR MIN TEMP:  59; 6HR MAX TEMP:  63;                                

GARRISON         N/A     62  34  35 NW18      29.90S                  
6HR MIN TEMP:  61; 6HR MAX TEMP:  66;                                

WILLISTON      SUNNY     65  31  28 N15       29.91F                  
6HR MIN TEMP:  62; 6HR MAX TEMP:  69;                                

DICKINSON      SUNNY     64  26  23 NW15      29.93S                  
6HR MIN TEMP:  62; 6HR MAX TEMP:  68;                                

HETTINGER      SUNNY     64  25  22 NW14      29.97S                  
6HR MIN TEMP:  64; 6HR MAX TEMP:  68;                                

$$

 *****  OTHER OBSERVATIONS NORTHEAST NORTH DAKOTA  *****
  
CITY           SKY/WX    TMP DP  RH WIND       PRES   REMARKS
WALHALLA         N/A     52  45  76 N7        29.79R                  
LANGDON        NOT AVBL                                               
CAVALIER       MOCLDY    48  43  81 NE12G25   29.81R THUNDER          
GRAFTON        NOT AVBL                                               
CANDO          FAIR      55  32  41 NW15      29.84R                  
FORT TOTTEN      N/A     56  31  38 NW8       29.95                   
ROLLA          FAIR      52  34  50 NW17G28   29.85R                  
RUGBY          NOT AVBL                                               
 ***** THE ABOVE OBSERVATIONS ARE NON NWS ARE NOT QUALITY
        CONTROLLED AND MAY MIS-REPORT RAIN FOR SNOW...
$$

 *****  OTHER OBSERVATIONS SOUTHEAST NORTH DAKOTA *****
  
CITY           SKY/WX    TMP DP  RH WIND       PRES   REMARKS
COOPERSTOWN    NOT AVBL                                               
VALLEY CITY    FAIR      57  36  44 N8        29.85S                  
OAKES            N/A     59  37  44 NW13      29.88R                  
GWINNER        CLEAR     61  34  36 NW17        N/A                   
SHEYENNE NWR     N/A     62  33  33 NW14      29.95                   
BUFFALO        NOT AVBL                                               
WYNDMERE       NOT AVBL                                               
 ***** THE ABOVE OBSERVATIONS ARE NON NWS ARE NOT QUALITY
       CONTROLLED AND MAY MIS-REPORT RAIN FOR SNOW...
$$

  *****  WEATHER ACROSS NORTHERN MINNESOTA  *****     
  
CITY           SKY/WX    TMP DP  RH WIND       PRES   REMARKS
FLAG ISLAND    MOCLDY    43  30  61 SW12      29.79S                  
WARROAD        DRIZZLE   46  36  66 CALM      29.83R                  
ROSEAU         MOCLDY    46  37  71 S5        29.82S                  
HALLOCK        CLEAR     46  41  81 S9        29.80F                  
THF RVR FALLS  PTCLDY    43  37  81 S6        29.86S                  
6HR MIN TEMP:  41; 6HR MAX TEMP:  46; 6HR PCP:  0.02;                

HALSTAD          N/A     51  34  51 E6          N/A                   
FOSSTON        CLEAR     45  37  76 CALM      29.87R                  
BAUDETTE       PTCLDY    46  28  49 SW7       29.81S                  
6HR MIN TEMP:  45; 6HR MAX TEMP:  50;                                

WASKISH        MOCLDY    39  34  81 CALM      29.84S                  
CROOKSTON      CLEAR     46  39  76 SE6       29.86F                  
$$
  *****  WEATHER ACROSS CENTRAL AND WEST MINNESOTA  *****     
  
CITY           SKY/WX    TMP DP  RH WIND       PRES   REMARKS
BEMIDJI        PTCLDY    37  35  93 CALM      29.85S                  
PARK RAPIDS    MOCLDY    44  36  73 E3        29.84S                  
6HR MIN TEMP:  41; 6HR MAX TEMP:  46; 6HR PCP:  0.01;                

WADENA         CLEAR     43  36  75 NE8       29.85R                  
DETROIT LAKES  CLEAR     45  36  70 E5        29.86S                  
MOORHEAD       CLEAR     54  39  58 NE6       29.87R                  
FERGUS FALLS   CLEAR     55  34  44 NE6       29.86R                  
ELBOW LAKE     FAIR      55  36  48 N10       29.83R                  
MORRIS MN      CLEAR     59  37  44 N16G22    29.83R                  
STAPLES        PTCLDY    43  34  70 NE5       29.86R                  
WHEATON        CLEAR     57  37  47 NW12      29.86R                  
$$
  *****  WEATHER ELSEWHERE ACROSS MINNESOTA  *****     
  
CITY           SKY/WX    TMP DP  RH WIND       PRES   REMARKS
DULUTH         LGT RAIN  39  36  89 SW9       29.85S                  
6HR MIN TEMP:  39; 6HR MAX TEMP:  51; 6HR PCP:  0.02;                

INTRNTL FALLS  CLOUDY    49  26  41 W5        29.81S                  
6HR MIN TEMP:  47; 6HR MAX TEMP:  53;                                

ELY            PTCLDY    45  18  33 CALM      29.81S                  
CLOQUET        DRIZZLE   37  36  93 CALM      29.86S                  
BRAINERD       CLOUDY    41  36  82 NE8       29.86R                  
6HR MIN TEMP:  41; 6HR MAX TEMP:  47; 6HR PCP: TRACE;                

HIBBING        MOCLDY    41  33  73 W7        29.84R                  
6HR MIN TEMP:  41; 6HR MAX TEMP:  51; 6HR PCP: TRACE;                

ALEXANDRIA     CLEAR     52  36  54 N13       29.83R                  
6HR MIN TEMP:  49; 6HR MAX TEMP:  63;                                

SAINT CLOUD    CLEAR     52  36  54 NE10      29.80R                  
6HR MIN TEMP:  48; 6HR MAX TEMP:  59;                                

MINNEAPOLIS    PTCLDY    56  35  45 NE6       29.77R                  
6HR MIN TEMP:  49; 6HR MAX TEMP:  57;                                

$$

  *****  WEATHER ACROSS SOUTH DAKOTA  *****
  
CITY           SKY/WX    TMP DP  RH WIND       PRES   REMARKS
SIOUX FALLS    PTCLDY    71  27  19 NW16G26   29.84R                  
6HR MIN TEMP:  68; 6HR MAX TEMP:  75;                                

BROOKINGS      NOT AVBL                                               
WATERTOWN      CLEAR     63  32  31 NW20G30   29.87R                  
6HR MIN TEMP:  63; 6HR MAX TEMP:  71;                                

HURON          CLEAR     68  32  26 N20G26    29.88R                  
6HR MIN TEMP:  68; 6HR MAX TEMP:  76;                                

SISSETON         N/A     63  34  33 N18G28    29.84R                  
ABERDEEN       CLEAR     66  27  23 N21G31    29.89R                  
6HR MIN TEMP:  66; 6HR MAX TEMP:  73; 6HR PCP: TRACE;                

MITCHELL       CLEAR     72  28  19 NW14G24   29.87R                  
PIERRE         SUNNY     69  27  20 N18G26    29.93R                  
6HR MIN TEMP:  67; 6HR MAX TEMP:  74;                                

MOBRIDGE       SUNNY     67  27  22 N10       29.91R                  
RAPID CITY     MOSUNNY   66  29  24 N22G32    29.98S                  
6HR MIN TEMP:  63; 6HR MAX TEMP:  69;                                

$$

  *****  SOME WEATHER IN NEARBY STATES *****
  
CITY           SKY/WX    TMP DP  RH WIND       PRES   REMARKS
GLASGOW MT     SUNNY     66  30  26 W13       29.92F                  
6HR MIN TEMP:  59; 6HR MAX TEMP:  68;                                

GREAT FALLS MT MOSUNNY   66  27  23 W16       29.94F                  
6HR MIN TEMP:  59; 6HR MAX TEMP:  70;                                

CHEYENNE WY    PTSUNNY   63  17  17 W18       30.10R                  
6HR MIN TEMP:  60; 6HR MAX TEMP:  68;                                

SCOTTSBLUFF NE SUNNY     70  24  17 N10G17    30.03F                  
6HR MIN TEMP:  69; 6HR MAX TEMP:  72;                                

OMAHA NE       PTCLDY    75  31  19 W13       29.86S                  
6HR MIN TEMP:  70; 6HR MAX TEMP:  79;                                

DES MOINES IA  PTCLDY    72  29  20 W12       29.83F                  
6HR MIN TEMP:  69; 6HR MAX TEMP:  76;                                

DAVENPORT IA   MOCLDY    66  29  24 SW15      29.86F                  
6HR MIN TEMP:  64; 6HR MAX TEMP:  71;                                

CHICAGO IL     CLOUDY    55  35  47 NE6       29.92S                  
6HR MIN TEMP:  55; 6HR MAX TEMP:  61; 6HR PCP:  0.06;                

EAU CLAIRE WI  CLOUDY    46  38  73 E6        29.79F                  
6HR MIN TEMP:  43; 6HR MAX TEMP:  49; 6HR PCP:  0.04;                

LA CROSSE WI   PTCLDY    58  31  35 SE6       29.78F                  
6HR MIN TEMP:  52; 6HR MAX TEMP:  60; 6HR PCP: TRACE;                

$$

  *****  SOME NATIONAL WEATHER *****
  
CITY           SKY/WX    TMP DP  RH WIND       PRES   REMARKS
LA GUARDIA NY  PTCLDY    51  23  33 W12       29.79F                  

Return to Home page


Western Regional Climate Center, wrcc@dri.edu